TimeAST,TemperatureF,Dew PointF,Humidity,Sea Level PressureIn,VisibilityMPH,Wind Direction,Wind SpeedMPH,Gust SpeedMPH,PrecipitationIn,Events,Conditions,WindDirDegrees,DateUTC
12:00 AM,36.5,34.7,93,30.30,-9999.0,SE,13.8,-,N/A,,Unknown,130,2014-01-06 04:00:00
1:00 AM,36.0,34.9,96,30.26,-9999.0,ESE,11.5,-,N/A,,Unknown,110,2014-01-06 05:00:00
2:00 AM,36,35,93,30.22,,East,15.0,,,,,100,2014-01-06 06:00:00
2:00 AM,35.6,34.7,97,30.22,-9999.0,East,15.0,-,N/A,,Unknown,100,2014-01-06 06:00:00
3:00 AM,36.0,34.5,94,30.18,-9999.0,East,19.6,-,N/A,,Unknown,100,2014-01-06 07:00:00
4:00 AM,36.5,34.9,94,30.14,-9999.0,East,20.7,-,N/A,,Unknown,90,2014-01-06 08:00:00
5:00 AM,37.4,35.4,93,30.08,-9999.0,East,26.5,32.2,N/A,,Unknown,100,2014-01-06 09:00:00
6:00 AM,38.5,35.2,88,30.02,-9999.0,ESE,31.1,38.0,N/A,,Unknown,110,2014-01-06 10:00:00
7:00 AM,39.4,37.2,92,29.96,-9999.0,ESE,33.4,41.4,N/A,,Unknown,110,2014-01-06 11:00:00
8:00 AM,41,39,91,29.92,,ESE,34.5,,,,,110,2014-01-06 12:00:00
8:00 AM,41.0,39.2,93,29.92,-9999.0,ESE,34.5,44.9,N/A,,Unknown,110,2014-01-06 12:00:00
9:00 AM,41.5,40.3,95,29.86,-9999.0,ESE,34.5,43.7,0.06,,Unknown,110,2014-01-06 13:00:00
10:00 AM,45.0,43.5,95,29.82,-9999.0,ESE,33.4,41.4,N/A,,Unknown,110,2014-01-06 14:00:00
11:00 AM,46.8,45.5,95,29.76,-9999.0,ESE,34.5,41.4,0.07,,Unknown,110,2014-01-06 15:00:00
12:00 PM,46.0,45.1,97,29.70,-9999.0,ESE,33.4,39.1,N/A,,Unknown,120,2014-01-06 16:00:00
1:00 PM,47.1,46.2,97,29.62,-9999.0,ESE,27.6,33.4,0.04,,Unknown,110,2014-01-06 17:00:00
2:00 PM,51,50,96,29.51,,ESE,44.9,,,,,120,2014-01-06 18:00:00
2:00 PM,51.3,50.2,96,29.51,-9999.0,ESE,44.9,54.1,0.13,,Unknown,120,2014-01-06 18:00:00
3:00 PM,51.4,50.4,96,29.51,-9999.0,SE,35.7,43.7,0.07,,Unknown,130,2014-01-06 19:00:00
4:00 PM,48.7,47.8,97,29.49,-9999.0,SE,28.8,40.3,0.01,,Unknown,140,2014-01-06 20:00:00
5:00 PM,46.0,45.5,98,29.45,-9999.0,SSE,18.4,24.2,N/A,,Unknown,150,2014-01-06 21:00:00
6:00 PM,44.6,44.2,99,29.43,-9999.0,SSE,18.4,-,N/A,,Unknown,150,2014-01-06 22:00:00
7:00 PM,44.1,43.5,98,29.39,-9999.0,SSE,17.3,25.3,0.01,,Unknown,150,2014-01-06 23:00:00
8:00 PM,45,45,98,29.35,,SSE,18.4,,,,,150,2014-01-07 00:00:00
8:00 PM,45.0,44.6,99,29.35,-9999.0,SSE,18.4,25.3,N/A,,Unknown,150,2014-01-07 00:00:00
9:00 PM,45.5,45.1,99,29.31,-9999.0,SSE,17.3,25.3,0.01,,Unknown,160,2014-01-07 01:00:00
10:00 PM,47.8,45.5,92,29.31,-9999.0,South,17.3,28.8,0.01,,Unknown,190,2014-01-07 02:00:00
11:00 PM,46.0,45.5,98,29.28,-9999.0,South,12.7,21.9,0.02,,Unknown,180,2014-01-07 03:00:00